Tracking 25693 objects as of 1-Jul-2022
HD Live streaming from Space Station
objects crossing your sky now

STARLINK-3271

Track STARLINK-3271 now!
10-day predictions
STARLINK-3271 is classified as:


NORAD ID: 50167
Int'l Code: 2021-125M
Perigee: 544.9 km
Apogee: 549.0 km
Inclination: 53.2 °
Period: 95.4 minutes
Semi major axis: 6917 km
RCS: Unknown
Launch date: December 18, 2021
Source: United States (US)
Launch site: AIR FORCE WESTERN TEST RANGE (AFWTR)
aabbcc
Your satellite tracking list
Your tracking list is empty




NASA's NSSDC Master Catalog

Two Line Element Set (TLE):
1 50167U 21125M   22182.42659598  .00000300  00000-0  36964-4 0  9998
2 50167  53.2171 187.2200 0002939  38.7397 321.3805 15.08827160 33062
Source of the keplerian elements: AFSPC